Zurück zum Katalog

STARLINK-33780

AktivKommunikationVLEO
NORAD 63459·PAYLOAD·🇺🇸 United States

Gestartet Apr 4, 2025 von Vandenberg Space Force Base

Loading…

Nächste Überflüge (nächste 24 Stunden)

TLE

AktuellSource: CelesTrak SupGP

Epoche: Sep 14, 2026, 22:41 UTC

1 63459C 25069AC  26257.94562500  .00004701  00000+0  13895-3 0  2579
2 63459  53.1589 335.8483 0001209  90.9116  19.6020 15.34377248    15

Verfolge STARLINK-33780 in Echtzeit mit AllMySat

Download on the App Store